TimeCDT,TemperatureF,Dew PointF,Humidity,Sea Level PressureIn,VisibilityMPH,Wind Direction,Wind SpeedMPH,Gust SpeedMPH,PrecipitationIn,Events,Conditions,WindDirDegrees,DateUTC
12:53 AM,34.0,25.0,70,30.29,10.0,ESE,6.9,-,N/A,,Mostly Cloudy,110,2013-03-29 05:53:00
1:53 AM,30.9,25.0,79,30.30,10.0,East,3.5,-,N/A,,Scattered Clouds,80,2013-03-29 06:53:00
2:53 AM,32.0,25.0,75,30.30,9.0,Calm,Calm,-,N/A,,Overcast,0,2013-03-29 07:53:00
3:53 AM,32.0,25.0,75,30.29,9.0,East,3.5,-,N/A,,Mostly Cloudy,80,2013-03-29 08:53:00
4:53 AM,33.1,26.1,75,30.28,9.0,NE,3.5,-,N/A,,Overcast,40,2013-03-29 09:53:00
5:53 AM,33.1,26.1,75,30.27,9.0,ESE,4.6,-,N/A,,Overcast,110,2013-03-29 10:53:00
6:53 AM,34.0,26.1,73,30.27,10.0,East,4.6,-,N/A,,Overcast,100,2013-03-29 11:53:00
7:53 AM,35.1,26.1,70,30.28,9.0,East,4.6,-,N/A,,Overcast,90,2013-03-29 12:53:00
8:53 AM,36.0,27.0,70,30.28,9.0,ESE,6.9,-,N/A,,Overcast,120,2013-03-29 13:53:00
9:53 AM,37.0,28.9,73,30.28,9.0,SE,4.6,-,0.00,,Overcast,140,2013-03-29 14:53:00
10:53 AM,37.9,30.0,73,30.28,10.0,SE,4.6,-,0.00,Rain,Light Rain,130,2013-03-29 15:53:00
11:53 AM,39.9,30.0,68,30.27,10.0,ESE,9.2,-,0.00,,Overcast,120,2013-03-29 16:53:00
12:53 PM,44.1,32.0,63,30.25,10.0,SSE,10.4,-,N/A,,Scattered Clouds,150,2013-03-29 17:53:00
1:53 PM,48.0,34.0,58,30.23,10.0,South,11.5,-,N/A,,Scattered Clouds,190,2013-03-29 18:53:00
2:53 PM,48.9,35.1,59,30.21,10.0,South,13.8,-,N/A,,Partly Cloudy,170,2013-03-29 19:53:00
3:53 PM,48.0,35.1,61,30.19,10.0,SSE,13.8,-,N/A,,Mostly Cloudy,160,2013-03-29 20:53:00
4:53 PM,48.0,36.0,63,30.16,10.0,SSE,13.8,-,N/A,,Partly Cloudy,150,2013-03-29 21:53:00
5:53 PM,48.0,36.0,63,30.15,10.0,SSE,11.5,-,N/A,,Clear,150,2013-03-29 22:53:00
6:53 PM,46.0,35.1,66,30.14,10.0,SE,10.4,-,N/A,,Clear,140,2013-03-29 23:53:00
7:53 PM,43.0,34.0,71,30.13,9.0,ESE,6.9,-,N/A,,Clear,120,2013-03-30 00:53:00
8:53 PM,41.0,34.0,76,30.12,8.0,ESE,8.1,-,N/A,,Mostly Cloudy,110,2013-03-30 01:53:00
9:53 PM,41.0,35.1,79,30.12,8.0,SE,8.1,-,N/A,,Overcast,130,2013-03-30 02:53:00
10:53 PM,43.0,35.1,74,30.10,9.0,ESE,6.9,-,N/A,,Overcast,120,2013-03-30 03:53:00
11:53 PM,44.1,35.1,71,30.07,10.0,SE,6.9,-,N/A,,Overcast,140,2013-03-30 04:53:00